Location: Bushey
(51.6333°N, 0.3667°W)
Time: 19:06:19
(UTC+00:00)

Cosmos 1666 - Pass Details

Date: 03 March 2021
Orbit: 497 x 518 km, 82.5° (Epoch: 17 April)

Event Time Altitude Azimuth Distance (km) Brightness Sun altitude
Rises 18:30:18 0° 145° (SE) 2,578 5.9 -7.7°
Reaches altitude 10° 18:33:04 10° 122° (ESE) 1,703 4.8 -8.2°
Maximum altitude 18:35:18 15° 85° (E) 1,406 4.2 -8.5°
Drops below altitude 10° 18:37:32 10° 48° (NE) 1,716 4.9 -8.9°
Sets 18:40:20 0° 26° (NNE) 2,610 6.0 -9.3°
